Regional Weather Roundup
Issued by NWS

Home | Current Version | Previous Version | Text Only | Print | Product List | Glossary Off
Versions: 1 2 3 4 5 6 7 8 9 10 11 12 13 14 15 16 17 18 19 20 21 22 23 24 25 26 27 28 29 30 31 32 33 34 35 36 37 38 39 40 41 42 43 44 45 46 47 48 49 50

000
ASUS43 KBIS 280320
RWRND

NORTH DAKOTA REGIONAL WEATHER ROUNDUP
NATIONAL WEATHER SERVICE BISMARCK ND
900 PM CST TUE JAN 27 2015

NOTE: "FAIR" INDICATES FEW OR NO CLOUDS BELOW 12,000 FEET WITH NO
SIGNIFICANT WEATHER AND/OR OBSTRUCTIONS TO VISIBILITY.


NDZ001>003-009>011-017-280400-
NORTHWEST NORTH DAKOTA

CITY           SKY/WX    TMP DP  RH WIND       PRES   REMARKS
WILLISTON      MOCLDY    34  31  88 N3        29.77F
MINOT          MOCLDY    37  33  85 SW9       29.77R
MINOT AFB      MOCLDY    30  30 100 W2        29.77S
$$

NDZ018>021-031>035-040>046-280400-
SOUTHWEST NORTH DAKOTA

CITY           SKY/WX    TMP DP  RH WIND       PRES   REMARKS
BISMARCK       MOCLDY    36  32  85 E3        29.80S
DICKINSON      MOCLDY    35  29  78 W8        29.77F
GARRISON         N/A     35  33  92 N3        29.76F
HETTINGER ARPT CLOUDY    35  29  78 CALM      29.81F
$$

NDZ004>008-012>016-024-026-027-054-280400-
NORTHEAST NORTH DAKOTA

CITY           SKY/WX    TMP DP  RH WIND       PRES   REMARKS
GRAND FORKS    CLOUDY    32  29  88 S17G24    29.92F
GRND FRKS AFB  CLOUDY    31  29  93 S15       29.91F
DEVILS LAKE    CLOUDY    32  30  93 SE13      29.81F VSB 3/4
$$

NDZ022-023-025-028>030-036>039-047>053-280400-
SOUTHEAST NORTH DAKOTA

CITY           SKY/WX    TMP DP  RH WIND       PRES   REMARKS
FARGO          CLOUDY    33  30  88 SE17G28   29.94F
JAMESTOWN      CLOUDY    32  31  96 SE13      29.83F
$$



USA.gov is the U.S. government's official web portal to all federal, state and local government web resources and services.